Laramie, WY

7:46 AM MST on February 19, 2017 (GMT -0700)
Laramie Regional

Weather History for KLAR - September, 2011

Change the Weather History Date:

Monday, September 5, 2011

  Actual Average Record
Temperature  
Mean Temperature 58 °F 57 °F  
Max Temperature 81 °F 73 °F 90 °F (1978)
Min Temperature 35 °F 42 °F 30 °F (1956)
Degree Days  
Heating Degree Days 7 8  
Month to date heating degree days 31 35  
Since 1 July heating degree days 57 207  
Cooling Degree Days 0 0  
Month to date cooling degree days 2 0  
Year to date cooling degree days 126 66  
Growing Degree Days 8 (Base 50)    
Moisture  
Dew Point 22 °F    
Average Humidity 44    
Maximum Humidity 79    
Minimum Humidity 8    
Precipitation  
Precipitation 0.00 in 0.04 in 0.74 in (1991)
Month to date precipitation T 0.18  
Year to date precipitation 7.75 8.33  
Sea Level Pressure  
Sea Level Pressure 30.02 in    
Wind  
Wind Speed 10 mph (SW)    
Max Wind Speed 25 mph    
Max Gust Speed 43 mph    
Visibility 10 miles    
Events      
T = Trace of Precipitation, MM = Missing Value Source: NWS Daily Summary

Daily Weather History Graph

Daily Weather History Graph

Search for Another Location

Airport or City:

Trip Planner

Search our weather history database for the weather conditions in past years. The results will help you decide how hot, cold, wet, or windy it might be!

Date:

Astronomy

Sep. 05, 2011 Rise Set
Actual Time 6:32 AM MDT 7:29 PM MDT
Civil Twilight 6:04 AM MDT 7:57 PM MDT
Nautical Twilight 5:31 AM MDT 8:30 PM MDT
Astronomical Twilight 4:56 AM MDT 9:05 PM MDT
Moon 3:20 PM MDT (9/5) No Moon Set
Length of Visible Light 13h 52m
Length of Day
12h 56m
First Quarter, 61% of the Moon is Illuminated
Sep 5
First Quarter
Sep 12
Full
Sep 20
Last Quarter
Sep 27
New
Oct 3
First Quarter

Hourly Weather History & Observations

Time (MDT) Temp. Windchill Dew Point Humidity Pressure Visibility Wind Dir Wind Speed Gust Speed Precip Events Conditions
12:53 AM 46.9 °F - 35.1 °F 63% 30.01 in 10.0 mi South 13.8 mph - N/A   Clear
1:53 AM 45.0 °F 39.7 °F 35.1 °F 68% 30.00 in 10.0 mi South 10.4 mph - N/A   Clear
2:53 AM 42.1 °F 36.6 °F 33.1 °F 70% 30.01 in 10.0 mi South 9.2 mph - N/A   Clear
3:53 AM 39.0 °F 32.8 °F 33.1 °F 79% 30.02 in 10.0 mi South 9.2 mph - N/A   Clear
4:53 AM 39.2 °F 34.2 °F 32.0 °F 75% 30.26 in 10.0 mi South 6.9 mph - N/A   Clear
5:53 AM 37.4 °F 31.4 °F 30.2 °F 75% 30.26 in 10.0 mi SSE 8.1 mph - N/A   Clear
6:53 AM 37.4 °F 30.8 °F 30.2 °F 75% 30.27 in 10.0 mi SE 9.2 mph - N/A   Clear
7:53 AM 48.0 °F - 30.9 °F 52% 30.06 in 10.0 mi SE 6.9 mph - N/A   Clear
8:53 AM 57.9 °F - 30.0 °F 35% 30.02 in 10.0 mi SSE 6.9 mph - N/A   Clear
9:53 AM 66.9 °F - 30.0 °F 25% 29.97 in 10.0 mi South 4.6 mph - N/A   Clear
10:53 AM 73.4 °F - 17.6 °F 12% 30.26 in 10.0 mi Variable 3.5 mph - N/A   Clear
11:53 AM 75.9 °F - 19.0 °F 12% 29.93 in 10.0 mi NNW 8.1 mph - N/A   Clear
12:53 PM 77.0 °F - 19.0 °F 11% 29.92 in 10.0 mi Variable 6.9 mph 24.2 mph N/A   Clear
1:53 PM 75.9 °F - 12.9 °F 9% 29.91 in 10.0 mi WNW 17.3 mph 23.0 mph N/A   Clear
2:53 PM 78.1 °F - 12.0 °F 8% 29.91 in 10.0 mi WNW 17.3 mph 25.3 mph N/A   Clear
3:53 PM 80.1 °F - 14.0 °F 8% 29.90 in 10.0 mi NW 13.8 mph 28.8 mph N/A   Clear
4:53 PM 79.0 °F - 12.9 °F 8% 29.90 in 10.0 mi WNW 21.9 mph 28.8 mph N/A   Clear
5:53 PM 77.0 °F - 14.0 °F 9% 29.92 in 10.0 mi NW 17.3 mph 25.3 mph N/A   Clear
6:53 PM 73.9 °F - 12.9 °F 10% 29.94 in 10.0 mi North 9.2 mph - N/A   Clear
7:53 PM 64.9 °F - 12.9 °F 13% 29.94 in 10.0 mi North 9.2 mph - N/A   Clear
8:53 PM 57.9 °F - 12.0 °F 16% 29.94 in 10.0 mi NE 6.9 mph - N/A   Clear
9:53 PM 53.6 °F - 15.8 °F 22% 30.22 in 10.0 mi WSW 9.2 mph - N/A   Clear
10:53 PM 48.9 °F - 17.1 °F 28% 29.92 in 10.0 mi WSW 8.1 mph - N/A   Clear
11:53 PM 50.0 °F - 23.0 °F 35% 29.91 in 10.0 mi South 9.2 mph - N/A   Partly Cloudy